Weather History for San Jose, Costa Rica

Change the Weather History Date:

Saturday, September 6, 2014

  Actual Average Record
Temperature  
Mean Temperature 73 °F -  
Max Temperature 82 °F 79 °F 86 °F (1997)
Min Temperature 64 °F 63 °F 62 °F (1996)
Cooling Degree Days 8    
Growing Degree Days 23 (Base 50)    
Moisture  
Dew Point 65 °F    
Average Humidity 79    
Maximum Humidity 94    
Minimum Humidity 52    
Precipitation  
Precipitation 0.31 in 0.46 in - ()
Sea Level Pressure  
Sea Level Pressure 29.95 in    
Wind  
Wind Speed 5 mph ()    
Max Wind Speed 16 mph    
Max Gust Speed -    
Visibility 7.7 miles    
Events Rain    
Averages and records for this station are not official NWS values.
T = Trace of Precipitation, MM = Missing Value Source: Averaged Metar Reports

Daily Weather History Graph

Daily Weather History Graph

Search for Another Location

Airport:

Trip Planner

Search our weather history database for the weather conditions in past years. The results will help you decide how hot, cold, wet, or windy it might be!

Date:

Astronomy

Sep. 06, 2014 Rise Set
Actual Time 5:27 AM CST 5:42 PM CST
Civil Twilight 5:06 AM CST 6:03 PM CST
Nautical Twilight 4:41 AM CST 6:28 PM CST
Astronomical Twilight 4:16 AM CST 6:53 PM CST
Moon 3:41 PM CST (9/6) 2:51 AM CST (9/6)
Length of Visible Light 12h 57m
Length of Day
12h 15m
Waxing Gibbous, 92% of the Moon is Illuminated
Sep 6
Waxing Gibbous
Sep 8
Full
Sep 15
Last Quarter
Sep 24
New
Oct 1
First Quarter

Hourly Weather History & Observations

Time (CST) Temp. Heat Index Dew Point Humidity Pressure Visibility Wind Dir Wind Speed Gust Speed Precip Events Conditions
12:00 AM 69 °F - 64 °F 81% 29.83 in 12 mi East 3.5 mph - -   Partly Cloudy
12:00 AM 69.8 °F - 64.4 °F 83% 29.98 in - East 3.5 mph - N/A   Clear
1:00 AM 69.8 °F - 64.4 °F 83% 29.99 in - ESE 3.5 mph - N/A   Clear
2:00 AM 68.0 °F - 62.6 °F 83% 29.98 in 6.2 mi North 3.5 mph - N/A   Mostly Cloudy
3:00 AM 68 °F - 63 °F 80% 29.85 in 12 mi NE 4.6 mph - -   Scattered Clouds
3:00 AM 68.0 °F - 62.6 °F 83% 29.97 in - NE 4.6 mph - N/A   Clear
4:00 AM 68.0 °F - 64.4 °F 88% 29.96 in - NNE 5.8 mph - N/A   Clear
5:00 AM 68.0 °F - 62.6 °F 83% 29.98 in - NE 8.1 mph - N/A   Clear
6:00 AM 69 °F - 63 °F 74% 29.86 in 12 mi ENE 8.1 mph - -   Partly Cloudy
6:00 AM 69.8 °F - 62.6 °F 78% 29.97 in - ENE 8.1 mph - N/A   Clear
7:00 AM 73.4 °F - 62.6 °F 69% 29.98 in - ENE 8.1 mph - N/A   Clear
8:00 AM 77.0 °F - 62.6 °F 61% 30.00 in 6.2 mi East 13.8 mph - N/A   Mostly Cloudy
9:00 AM 78 °F - 64 °F 52% 29.87 in 12 mi East 16.1 mph - -   Scattered Clouds
9:00 AM 78.8 °F - 64.4 °F 61% 30.02 in 6.2 mi East 16.1 mph - N/A   Mostly Cloudy
10:00 AM 78.8 °F - 64.4 °F 61% 30.02 in 6.2 mi ESE 6.9 mph - N/A   Mostly Cloudy
11:00 AM 80.6 °F 82.3 °F 64.4 °F 58% 30.01 in 6.2 mi SE 6.9 mph - N/A   Mostly Cloudy
12:00 PM 79 °F - 67 °F 59% 29.80 in 12 mi WSW 5.8 mph - -   Partly Cloudy
12:00 PM 78.8 °F - 68.0 °F 69% 29.98 in 6.2 mi WSW 5.8 mph - N/A   Mostly Cloudy
1:00 PM 80.6 °F 83.2 °F 68.0 °F 65% 29.95 in 6.2 mi WSW 5.8 mph - N/A   Mostly Cloudy
2:00 PM 75.2 °F - 69.8 °F 83% 29.93 in 6.2 mi WSW 15.0 mph - N/A   Mostly Cloudy
3:00 PM 70 °F - 68 °F 92% 29.82 in 6 mi West 4.6 mph - -   Overcast
3:00 PM 69.8 °F - 68.0 °F 94% 29.94 in 6.2 mi West 4.6 mph - N/A   Mostly Cloudy
4:00 PM 69.8 °F - 68.0 °F 94% 29.95 in 2.5 mi ESE 5.8 mph - N/A Rain Rain
5:00 PM 68.0 °F - 66.2 °F 94% 29.95 in 6.2 mi ENE 4.6 mph - N/A Rain Light Rain
6:00 PM 69 °F - 63 °F 76% 29.86 in 12 mi ENE 6.9 mph - - Rain Light Rain
6:00 PM 68.0 °F - 64.4 °F 88% 29.98 in 6.2 mi ENE 6.9 mph - N/A Rain Light Rain
7:00 PM 68.0 °F - 64.4 °F 88% 30.00 in 6.2 mi Calm Calm - N/A Rain Light Rain
8:00 PM 68.0 °F - 64.4 °F 88% 30.00 in - Calm Calm - N/A   Clear
9:00 PM 68 °F - 66 °F 91% 29.87 in 12 mi North 2.3 mph - -   Overcast
9:00 PM 68.0 °F - 66.2 °F 94% 30.01 in 6.2 mi North 2.3 mph - N/A   Mostly Cloudy
10:00 PM 68.0 °F - 64.4 °F 88% 30.01 in 6.2 mi Calm Calm - N/A   Mostly Cloudy
11:00 PM 66.2 °F - 64.4 °F 94% 30.02 in 6.2 mi ENE 2.3 mph - N/A   Mostly Cloudy